Location: �terpigny
(49.8910°N, 2.9249°E)
Time: 04:32:33
(UTC+00:00)

Cosmos 614 Rocket - Pass Details

Date: 03 June 2022
Orbit: 732 x 764 km, 74.1° (Epoch: 05 July)

Event Time Altitude Azimuth Distance (km) Brightness Sun altitude
Rises 22:49:24 0° 342° (NNW) 3,223 9.0 -16.6°
Reaches altitude 10° 22:52:11 10° 355° (N) 2,299 7.8 -16.7°
Maximum altitude 22:56:28 25° 50° (NE) 1,510 5.8 -16.9°
Drops below altitude 10° 23:00:44 10° 106° (ESE) 2,298 6.2 -17.0°
Enters shadow 23:01:27 - 110° (ESE) 2,524 6.4 -17.0°
